Tracking 31027 objects as of 19-Jul-2025
HD Live streaming from Space Station
objects crossing your sky now

STARLINK-30104

Track STARLINK-30104 now!
10-day predictions
STARLINK-30104 is classified as:


NORAD ID: 56300
Int'l Code: 2023-056Q
Perigee: 565.5 km
Apogee: 567.0 km
Inclination: 43.0 °
Period: 95.8 minutes
Semi major axis: 6937 km
RCS: Unknown
Launch date: April 19, 2023
Source: United States (US)
Launch site: AIR FORCE EASTERN TEST RANGE (AFETR)
Your satellite tracking list
STARLINK-3957
Track 1 satellite(s)




NASA's NSSDC Master Catalog

Two Line Element Set (TLE):
1 56300U 23056Q   25199.92182650  .00000198  00000-0  29762-4 0  9997
2 56300  43.0051  40.1326 0001080 268.4601  91.6118 15.02536391124920
Source of the keplerian elements: AFSPC